ICUBE-1

operational
NORAD ID: 39432 Int'l Des: 2013-066 Owner: ISTPK Country: PK
LEOCIRCULARRETROGRADESSO

Über ICUBE-1

Beschreibung wird geladen...

Live-Position

3D-Globus wird geladen...

Nächste Überflüge

Höhenverlauf

Altitude vs Time

uPlot chart will show altitude changes over time

Zweizeiliger Elementsatz

1 39432U 13066S 25278.48811830 .00016495 00000-0 82137-3 0 9993
2 39432 97.5482 257.8664 0021703 135.8143 224.4828 15.17451156645678
Epoch: 5. Okt. 2025 • Age: 17 hours

Aktueller Status

Höhe 532.4 km
Geschwindigkeit 7.59 km/s
Subsatellitenpunkt -46.53°S, 12.55°W
Startdatum 21. Nov. 2013
Alter 11.8 years
Typ other

Technische Details

Klassifizierung Payload
Masse 1.08 kg
Trockenmasse 1.08 kg
Gesamtmasse 1.08 kg
Länge 0.10 m
Durchmesser 0.10 m
Spannweite 0.10 m
Form Box
Hersteller ISTPK
Bus-Typ Cubesat 1U
Phasenstatus In Orbit
Besitzer/Staat ISTPK/PK

Große Konstellationen

Loading constellations...